Location: Leo
(52.0556°N, 112.3605°W)
Time: 09:55:45
(UTC+00:00)

FO-29 - Pass Details

Date: 06 December 2023
Orbit: 799 x 1322 km, 98.6° (Epoch: 01 March)

Event Time Altitude Azimuth Distance (km) Brightness Sun altitude
Rises 13:31:17 0° 12° (NNE) 4,085 12.7 -16.0°
Reaches altitude 10° 13:35:06 10° 352° (N) 3,203 11.9 -15.4°
Maximum altitude 13:39:02 15° 319° (NW) 2,868 11.4 -14.8°
Enters shadow 13:39:36 15° 314° (NW) 2,885 11.4 -14.7°
